• In Österreich
  • Länderverzeichnis
  • Für 7 Tage
  • Wassertemperatur
  • Satellitenkarten
  • Wetterkarte
  • News
  • Widgets
  • user-avatar
    Anmelden

    Stündliche Wetter Chaschuri

    Heute, 21 September, Freitag

    Zeit Temperatur Niederschläge Wind Luftdruck Luftfeuchtigkeit
    00:00 +8°C° 0 mm 2 m/S 616 mmHg 86%
    01:00 +8°C° 0 mm 2 m/S 616 mmHg 85%
    02:00 +8°C° 0 mm 2 m/S 616 mmHg 85%
    03:00 +7°C° 0 mm 2 m/S 616 mmHg 84%
    04:00 +7°C° 0 mm 2 m/S 616 mmHg 84%
    05:00 +7°C° 0 mm 2 m/S 616 mmHg 84%
    06:00 +7°C° 0 mm 2 m/S 616 mmHg 84%
    07:00 +9°C° 0 mm 2 m/S 617 mmHg 75%
    08:00 +13°C° 0 mm 2 m/S 617 mmHg 67%
    09:00 +16°C° 0 mm 2 m/S 618 mmHg 59%
    10:00 +17°C° 0.1 mm 2 m/S 619 mmHg 55%
    11:00 +19°C° 0.1 mm 2 m/S 619 mmHg 51%
    12:00 +20°C° 0.1 mm 2 m/S 619 mmHg 47%
    13:00 +20°C° 0.4 mm 2 m/S 619 mmHg 47%
    14:00 +20°C° 0.4 mm 2 m/S 619 mmHg 48%
    15:00 +20°C° 0.4 mm 2 m/S 618 mmHg 48%
    16:00 +18°C° 0.4 mm 2 m/S 618 mmHg 56%
    17:00 +16°C° 0.4 mm 1 m/S 617 mmHg 64%
    18:00 +14°C° 0.4 mm 1 m/S 617 mmHg 72%
    19:00 +14°C° 0.3 mm 1 m/S 617 mmHg 74%
    20:00 +13°C° 0.3 mm 1 m/S 617 mmHg 77%
    21:00 +12°C° 0.3 mm 1 m/S 617 mmHg 80%
    22:00 +12°C° 0.1 mm 1 m/S 617 mmHg 80%
    23:00 +12°C° 0.1 mm 1 m/S 617 mmHg 80%

    Morgen, 22 September, Samstag

    Zeit Temperatur Niederschläge Wind Luftdruck Luftfeuchtigkeit
    00:00 +11°C° 0.1 mm 1 m/S 617 mmHg 80%
    01:00 +11°C° 0.2 mm 1 m/S 617 mmHg 80%
    02:00 +11°C° 0.2 mm 1 m/S 617 mmHg 81%
    03:00 +10°C° 0.2 mm 2 m/S 617 mmHg 81%
    04:00 +10°C° 0.1 mm 2 m/S 617 mmHg 81%
    05:00 +9°C° 0.1 mm 2 m/S 617 mmHg 82%
    06:00 +9°C° 0.1 mm 2 m/S 616 mmHg 83%
    07:00 +12°C° 0.1 mm 2 m/S 617 mmHg 76%
    08:00 +14°C° 0.1 mm 2 m/S 618 mmHg 69%
    09:00 +15°C° 0.1 mm 2 m/S 619 mmHg 62%
    10:00 +16°C° 0.3 mm 2 m/S 619 mmHg 58%
    11:00 +18°C° 0.3 mm 2 m/S 619 mmHg 54%
    12:00 +19°C° 0.3 mm 2 m/S 619 mmHg 49%
    13:00 +19°C° 0.3 mm 2 m/S 619 mmHg 51%
    14:00 +18°C° 0.3 mm 2 m/S 619 mmHg 52%
    15:00 +18°C° 0.3 mm 2 m/S 618 mmHg 54%
    16:00 +17°C° 0.6 mm 2 m/S 618 mmHg 61%
    17:00 +15°C° 0.6 mm 2 m/S 617 mmHg 68%
    18:00 +14°C° 0.6 mm 1 m/S 617 mmHg 76%
    19:00 +13°C° 0.3 mm 1 m/S 617 mmHg 78%
    20:00 +12°C° 0.3 mm 1 m/S 617 mmHg 80%
    21:00 +11°C° 0.3 mm 1 m/S 617 mmHg 83%
    22:00 +11°C° 0.1 mm 1 m/S 617 mmHg 83%
    23:00 +11°C° 0.1 mm 1 m/S 616 mmHg 84%

    übermorgen, 23 September, Sonntag

    Zeit Temperatur Niederschläge Wind Luftdruck Luftfeuchtigkeit
    00:00 +10°C° 0.1 mm 1 m/S 616 mmHg 84%
    01:00 +10°C° 0.1 mm 1 m/S 616 mmHg 85%
    02:00 +10°C° 0.1 mm 1 m/S 616 mmHg 85%
    03:00 +9°C° 0.1 mm 1 m/S 616 mmHg 85%
    04:00 +9°C° 0 mm 1 m/S 616 mmHg 85%
    05:00 +9°C° 0 mm 1 m/S 615 mmHg 86%
    06:00 +9°C° 0 mm 1 m/S 615 mmHg 86%
    07:00 +11°C° 0 mm 1 m/S 616 mmHg 77%
    08:00 +13°C° 0 mm 1 m/S 617 mmHg 69%
    09:00 +16°C° 0 mm 1 m/S 618 mmHg 60%
    10:00 +18°C° 0.1 mm 1 m/S 618 mmHg 56%
    11:00 +18°C° 0.1 mm 2 m/S 619 mmHg 52%
    12:00 +19°C° 0.1 mm 2 m/S 619 mmHg 48%
    13:00 +18°C° 0.5 mm 2 m/S 618 mmHg 50%
    14:00 +18°C° 0.5 mm 3 m/S 618 mmHg 52%
    15:00 +18°C° 0.5 mm 3 m/S 618 mmHg 54%
    16:00 +16°C° 0.4 mm 3 m/S 617 mmHg 63%
    17:00 +14°C° 0.4 mm 2 m/S 617 mmHg 72%
    18:00 +12°C° 0.4 mm 2 m/S 616 mmHg 82%
    19:00 +10°C° 0 mm 2 m/S 616 mmHg 86%
    20:00 +10°C° 0 mm 2 m/S 616 mmHg 90%
    21:00 +10°C° 0 mm 1 m/S 616 mmHg 95%
    22:00 +9°C° 0 mm 1 m/S 616 mmHg 94%
    23:00 +8°C° 0 mm 2 m/S 616 mmHg 94%

    24 September, Montag

    Zeit Temperatur Niederschläge Wind Luftdruck Luftfeuchtigkeit
    00:00 +8°C° 0 mm 2 m/S 616 mmHg 93%
    01:00 +7°C° 0 mm 2 m/S 616 mmHg 91%
    02:00 +7°C° 0 mm 2 m/S 616 mmHg 89%
    03:00 +7°C° 0 mm 2 m/S 616 mmHg 87%
    04:00 +6°C° 0 mm 2 m/S 616 mmHg 86%
    05:00 +6°C° 0 mm 2 m/S 615 mmHg 84%
    06:00 +6°C° 0 mm 2 m/S 615 mmHg 82%
    07:00 +7°C° 0 mm 2 m/S 616 mmHg 78%
    08:00 +8°C° 0 mm 2 m/S 616 mmHg 74%
    09:00 +10°C° 0 mm 2 m/S 617 mmHg 70%
    10:00 +10°C° 0.1 mm 2 m/S 617 mmHg 69%
    11:00 +11°C° 0.1 mm 3 m/S 617 mmHg 67%
    12:00 +12°C° 0.1 mm 3 m/S 617 mmHg 66%
    13:00 +12°C° 0.1 mm 3 m/S 617 mmHg 66%
    14:00 +12°C° 0.1 mm 3 m/S 617 mmHg 66%
    15:00 +12°C° 0.1 mm 3 m/S 616 mmHg 66%
    16:00 +12°C° 0 mm 2 m/S 616 mmHg 73%
    17:00 +10°C° 0 mm 2 m/S 615 mmHg 79%
    18:00 +9°C° 0 mm 1 m/S 615 mmHg 85%
    19:00 +9°C° 0 mm 1 m/S 615 mmHg 88%
    20:00 +8°C° 0 mm 1 m/S 615 mmHg 90%
    21:00 +7°C° 0 mm 1 m/S 615 mmHg 93%
    22:00 +7°C° 0 mm 1 m/S 614 mmHg 91%
    23:00 +7°C° 0 mm 1 m/S 614 mmHg 90%

    25 September, Dienstag

    Zeit Temperatur Niederschläge Wind Luftdruck Luftfeuchtigkeit
    00:00 +7°C° 0 mm 1 m/S 614 mmHg 89%
    01:00 +7°C° 0 mm 1 m/S 614 mmHg 87%
    02:00 +7°C° 0 mm 1 m/S 613 mmHg 85%
    03:00 +7°C° 0 mm 1 m/S 613 mmHg 83%
    04:00 +7°C° 0 mm 1 m/S 613 mmHg 82%
    05:00 +7°C° 0 mm 1 m/S 613 mmHg 81%
    06:00 +6°C° 0 mm 1 m/S 613 mmHg 79%
    07:00 +9°C° 0 mm 1 m/S 614 mmHg 70%
    08:00 +12°C° 0 mm 1 m/S 615 mmHg 61%
    09:00 +15°C° 0 mm 1 m/S 616 mmHg 52%
    10:00 +16°C° 0 mm 2 m/S 616 mmHg 46%
    11:00 +18°C° 0 mm 2 m/S 616 mmHg 39%
    12:00 +20°C° 0 mm 2 m/S 617 mmHg 33%
    13:00 +20°C° 0 mm 2 m/S 616 mmHg 34%
    14:00 +20°C° 0 mm 2 m/S 616 mmHg 34%
    15:00 +20°C° 0 mm 2 m/S 616 mmHg 34%
    16:00 +18°C° 0 mm 2 m/S 615 mmHg 43%
    17:00 +15°C° 0 mm 2 m/S 615 mmHg 53%
    18:00 +13°C° 0 mm 1 m/S 614 mmHg 62%
    19:00 +12°C° 0 mm 1 m/S 614 mmHg 65%
    20:00 +11°C° 0 mm 1 m/S 614 mmHg 68%
    21:00 +10°C° 0 mm 1 m/S 614 mmHg 71%
    22:00 +9°C° 0 mm 1 m/S 614 mmHg 71%
    23:00 +9°C° 0 mm 1 m/S 614 mmHg 72%

    26 September, Mittwoch

    Zeit Temperatur Niederschläge Wind Luftdruck Luftfeuchtigkeit
    00:00 +9°C° 0 mm 1 m/S 614 mmHg 72%
    01:00 +8°C° 0 mm 1 m/S 614 mmHg 73%
    02:00 +8°C° 0 mm 1 m/S 614 mmHg 73%
    03:00 +8°C° 0 mm 1 m/S 614 mmHg 74%
    04:00 +7°C° 0 mm 1 m/S 614 mmHg 74%
    05:00 +7°C° 0 mm 1 m/S 614 mmHg 74%
    06:00 +7°C° 0 mm 1 m/S 614 mmHg 74%
    07:00 +10°C° 0 mm 1 m/S 615 mmHg 66%
    08:00 +12°C° 0 mm 1 m/S 616 mmHg 58%
    09:00 +15°C° 0 mm 1 m/S 617 mmHg 50%
    10:00 +16°C° 0 mm 1 m/S 617 mmHg 47%
    11:00 +19°C° 0 mm 1 m/S 617 mmHg 44%
    12:00 +20°C° 0 mm 1 m/S 618 mmHg 42%
    13:00 +19°C° 0 mm 2 m/S 617 mmHg 43%
    14:00 +19°C° 0 mm 2 m/S 617 mmHg 45%
    15:00 +18°C° 0 mm 3 m/S 617 mmHg 47%
    16:00 +16°C° 0 mm 2 m/S 616 mmHg 57%
    17:00 +14°C° 0 mm 2 m/S 615 mmHg 67%
    18:00 +12°C° 0 mm 2 m/S 615 mmHg 77%
    19:00 +10°C° 0.1 mm 2 m/S 615 mmHg 81%
    20:00 +10°C° 0.1 mm 1 m/S 615 mmHg 84%
    21:00 +9°C° 0.1 mm 1 m/S 615 mmHg 87%
    22:00 +9°C° 0 mm 1 m/S 615 mmHg 88%
    23:00 +9°C° 0 mm 1 m/S 615 mmHg 89%
    Mehr zeigen